{"data":{"norad_id":43577,"epoch":"2026-09-19T20:15:26.294112Z","epoch_age_seconds":72040,"freshness":"FRESH","line1":"1 43577U 18061J   26262.84405433  .00000100  00000+0  28626-4 0  9999","line2":"2 43577  86.4011  17.1838 0002033  95.4727 264.6701 14.34218554426980","mean_motion":14.34218554,"eccentricity":0.0002033,"inclination_deg":86.4011,"raan_deg":17.1838,"arg_perigee_deg":95.4727,"mean_anomaly_deg":264.6701,"bstar":2.8626e-5,"rev_number":42698,"period_min":100.40310774002,"perigee_km":776.20970562604,"apogee_km":779.11925450783,"semimajor_km":7155.8014800669,"source":"CELESTRAK","updated_at":"2026-09-20T09:00:36.354508Z"}}